Terminal Aerodrome Forecast
Issued by NWS

Home | Current Version | Previous Version | Text Only | Print | Product List | Glossary On
Versions: 1 2 3 4 5 6 7 8 9 10 11 12 13 14 15 16 17 18 19 20 21 22 23 24 25 26 27 28 29
000
FTAK31 PAFA 140520
TAFASC
TAF
PASC 140520Z 1406/1506 08032G41KT 1/4SM BLSN FZFG VV005
      TEMPO 1406/1409 1/4SM BLSN BKN004
     FM141200 08022G32KT 1/2SM SN BLSN OVC015=

USA.gov is the U.S. government's official web portal to all federal, state and local government web resources and services.